Time,TemperatureF,DewpointF,PressureIn,WindDirection,WindDirectionDegrees,WindSpeedMPH,WindSpeedGustMPH,Humidity,HourlyPrecipIn,Conditions,Clouds,dailyrainin,SoftwareType,DateUTC
2013-02-20 00:05:00,42.7,33.2,29.84,WNW,291,3.0,0.0,69,0.00,,,0.00,WeatherTracker,2013-02-20 08:05:00,
2013-02-20 00:10:00,42.6,33.2,29.84,WNW,284,2.0,0.0,69,0.00,,,0.00,WeatherTracker,2013-02-20 08:10:00,
2013-02-20 00:15:00,42.5,33.4,29.84,WNW,302,3.0,0.0,70,0.00,,,0.00,WeatherTracker,2013-02-20 08:15:00,
2013-02-20 00:20:00,42.4,33.3,29.84,WNW,298,2.0,0.0,70,0.00,,,0.00,WeatherTracker,2013-02-20 08:20:00,
2013-02-20 00:25:00,42.4,33.3,29.84,WNW,295,6.0,0.0,70,0.00,,,0.00,WeatherTracker,2013-02-20 08:25:00,
2013-02-20 00:30:00,42.4,33.3,29.84,WNW,298,3.0,0.0,70,0.00,,,0.00,WeatherTracker,2013-02-20 08:30:00,
2013-02-20 00:35:00,42.3,33.2,29.85,WNW,299,8.0,0.0,70,0.00,,,0.00,WeatherTracker,2013-02-20 08:35:00,
2013-02-20 00:40:00,42.3,33.2,29.85,NW,305,4.0,0.0,70,0.00,,,0.00,WeatherTracker,2013-02-20 08:40:00,
2013-02-20 00:45:00,42.3,33.2,29.84,WNW,291,2.0,0.0,70,0.00,,,0.00,WeatherTracker,2013-02-20 08:45:00,
2013-02-20 00:50:00,42.2,33.1,29.84,WNW,291,6.0,0.0,70,0.00,,,0.00,WeatherTracker,2013-02-20 08:50:00,
2013-02-20 00:55:00,42.1,33.4,29.84,WNW,287,3.0,0.0,71,0.00,,,0.00,WeatherTracker,2013-02-20 08:55:00,
2013-02-20 01:00:00,42.2,33.1,29.84,NW,311,4.0,0.0,70,0.00,,,0.00,WeatherTracker,2013-02-20 09:00:00,
2013-02-20 01:05:00,42.3,33.2,29.85,NW,313,3.0,0.0,70,0.00,,,0.00,WeatherTracker,2013-02-20 09:05:00,
2013-02-20 01:10:00,42.3,33.2,29.85,NW,311,4.0,0.0,70,0.00,,,0.00,WeatherTracker,2013-02-20 09:10:00,
2013-02-20 01:15:00,42.3,33.2,29.85,WNW,285,3.0,0.0,70,0.00,,,0.00,WeatherTracker,2013-02-20 09:15:00,
2013-02-20 01:20:00,42.3,33.2,29.85,WNW,292,3.0,0.0,70,0.00,,,0.00,WeatherTracker,2013-02-20 09:20:00,
2013-02-20 01:25:00,42.2,33.1,29.85,WSW,256,0.0,0.0,70,0.00,,,0.00,WeatherTracker,2013-02-20 09:25:00,
2013-02-20 01:30:00,42.1,33.4,29.85,West,277,0.0,0.0,71,0.00,,,0.00,WeatherTracker,2013-02-20 09:30:00,
2013-02-20 01:35:00,42.0,33.3,29.86,WSW,245,0.0,0.0,71,0.00,,,0.00,WeatherTracker,2013-02-20 09:35:00,
2013-02-20 01:40:00,41.7,33.4,29.86,SSW,194,0.0,0.0,72,0.00,,,0.00,WeatherTracker,2013-02-20 09:40:00,
2013-02-20 01:45:00,41.3,33.0,29.86,SSE,157,0.0,0.0,72,0.00,,,0.00,WeatherTracker,2013-02-20 09:45:00,
2013-02-20 01:50:00,41.1,33.1,29.86,SW,223,1.0,0.0,73,0.00,,,0.00,WeatherTracker,2013-02-20 09:50:00,
2013-02-20 01:55:00,40.9,33.3,29.86,WSW,249,1.0,0.0,74,0.00,,,0.00,WeatherTracker,2013-02-20 09:55:00,
2013-02-20 02:00:00,40.8,33.5,29.86,WSW,243,0.0,0.0,75,0.00,,,0.00,WeatherTracker,2013-02-20 10:00:00,
2013-02-20 02:05:00,40.7,33.4,29.87,West,265,0.0,0.0,75,0.00,,,0.00,WeatherTracker,2013-02-20 10:05:00,
2013-02-20 02:10:00,40.8,33.5,29.87,WNW,297,0.0,0.0,75,0.00,,,0.00,WeatherTracker,2013-02-20 10:10:00,
2013-02-20 02:15:00,40.8,33.8,29.87,WNW,302,0.0,0.0,76,0.00,,,0.00,WeatherTracker,2013-02-20 10:15:00,
2013-02-20 02:20:00,41.0,34.0,29.87,WSW,248,1.0,0.0,76,0.00,,,0.00,WeatherTracker,2013-02-20 10:20:00,
2013-02-20 02:25:00,41.0,34.0,29.87,West,277,1.0,0.0,76,0.00,,,0.00,WeatherTracker,2013-02-20 10:25:00,
2013-02-20 02:30:00,40.9,33.9,29.87,West,281,0.0,0.0,76,0.00,,,0.00,WeatherTracker,2013-02-20 10:30:00,
2013-02-20 02:35:00,40.9,33.9,29.88,WNW,285,1.0,0.0,76,0.00,,,0.00,WeatherTracker,2013-02-20 10:35:00,
2013-02-20 02:40:00,40.9,34.3,29.88,WSW,252,0.0,0.0,77,0.00,,,0.00,WeatherTracker,2013-02-20 10:40:00,
2013-02-20 02:46:00,40.8,34.2,29.88,WSW,240,1.0,0.0,77,0.00,,,0.00,WeatherTracker,2013-02-20 10:46:00,
2013-02-20 02:51:00,40.7,34.1,29.88,WSW,244,1.0,0.0,77,0.00,,,0.00,WeatherTracker,2013-02-20 10:51:00,
2013-02-20 02:56:00,40.6,34.0,29.88,SW,214,0.0,0.0,77,0.00,,,0.00,WeatherTracker,2013-02-20 10:56:00,
2013-02-20 03:01:00,40.4,33.8,29.88,SSW,211,0.0,0.0,77,0.00,,,0.00,WeatherTracker,2013-02-20 11:01:00,
2013-02-20 03:06:00,40.2,33.9,29.88,SW,216,0.0,0.0,78,0.00,,,0.00,WeatherTracker,2013-02-20 11:06:00,
2013-02-20 03:11:00,40.0,33.7,29.88,SW,215,0.0,0.0,78,0.00,,,0.00,WeatherTracker,2013-02-20 11:11:00,
2013-02-20 03:16:00,39.9,33.6,29.88,SW,217,0.0,0.0,78,0.00,,,0.00,WeatherTracker,2013-02-20 11:16:00,
2013-02-20 03:21:00,39.9,33.9,29.88,SW,218,0.0,0.0,79,0.00,,,0.00,WeatherTracker,2013-02-20 11:21:00,
2013-02-20 03:26:00,39.9,33.6,29.88,SW,218,0.0,0.0,78,0.00,,,0.00,WeatherTracker,2013-02-20 11:26:00,
2013-02-20 03:31:00,39.8,33.8,29.88,SW,218,0.0,0.0,79,0.00,,,0.00,WeatherTracker,2013-02-20 11:31:00,
2013-02-20 03:36:00,40.0,34.0,29.88,West,266,1.0,0.0,79,0.00,,,0.00,WeatherTracker,2013-02-20 11:36:00,
2013-02-20 03:41:00,40.4,34.4,29.89,WSW,246,2.0,0.0,79,0.00,,,0.00,WeatherTracker,2013-02-20 11:41:00,
2013-02-20 03:46:00,41.1,34.8,29.89,WSW,250,3.0,0.0,78,0.00,,,0.00,WeatherTracker,2013-02-20 11:46:00,
2013-02-20 03:51:00,41.3,34.6,29.89,WNW,297,3.0,0.0,77,0.00,,,0.00,WeatherTracker,2013-02-20 11:51:00,
2013-02-20 03:56:00,41.4,34.7,29.88,NW,316,1.0,0.0,77,0.00,,,0.00,WeatherTracker,2013-02-20 11:56:00,
2013-02-20 04:01:00,41.2,34.5,29.88,WNW,302,2.0,0.0,77,0.00,,,0.00,WeatherTracker,2013-02-20 12:01:00,
2013-02-20 04:06:00,41.1,34.4,29.88,NW,309,2.0,0.0,77,0.00,,,0.00,WeatherTracker,2013-02-20 12:06:00,
2013-02-20 04:11:00,41.0,34.4,29.89,NW,304,0.0,0.0,77,0.00,,,0.00,WeatherTracker,2013-02-20 12:11:00,
2013-02-20 04:16:00,40.9,34.6,29.89,West,270,0.0,0.0,78,0.00,,,0.00,WeatherTracker,2013-02-20 12:16:00,
2013-02-20 04:21:00,41.0,34.7,29.89,WNW,288,0.0,0.0,78,0.00,,,0.00,WeatherTracker,2013-02-20 12:21:00,
2013-02-20 04:26:00,41.2,35.2,29.89,NW,313,1.0,0.0,79,0.00,,,0.00,WeatherTracker,2013-02-20 12:26:00,
2013-02-20 04:31:00,41.4,35.4,29.89,WNW,290,1.0,0.0,79,0.00,,,0.00,WeatherTracker,2013-02-20 12:31:00,
2013-02-20 04:36:00,41.5,35.5,29.89,WNW,292,2.0,0.0,79,0.00,,,0.00,WeatherTracker,2013-02-20 12:36:00,
2013-02-20 04:41:00,41.6,35.6,29.89,WNW,288,0.0,0.0,79,0.00,,,0.00,WeatherTracker,2013-02-20 12:41:00,
2013-02-20 04:46:00,41.7,35.7,29.90,West,270,2.0,0.0,79,0.00,,,0.00,WeatherTracker,2013-02-20 12:46:00,
2013-02-20 04:51:00,41.6,35.6,29.90,WNW,293,0.0,0.0,79,0.00,,,0.00,WeatherTracker,2013-02-20 12:51:00,
2013-02-20 04:56:00,41.5,35.5,29.90,WNW,300,0.0,0.0,79,0.00,,,0.00,WeatherTracker,2013-02-20 12:56:00,
2013-02-20 05:01:00,41.5,35.8,29.90,WNW,283,1.0,0.0,80,0.00,,,0.00,WeatherTracker,2013-02-20 13:01:00,
2013-02-20 05:06:00,41.5,35.5,29.90,WNW,292,0.0,0.0,79,0.00,,,0.00,WeatherTracker,2013-02-20 13:06:00,
2013-02-20 05:12:00,41.5,35.8,29.90,West,269,2.0,0.0,80,0.00,,,0.00,WeatherTracker,2013-02-20 13:12:00,
2013-02-20 05:17:00,41.5,35.8,29.90,West,271,1.0,0.0,80,0.00,,,0.00,WeatherTracker,2013-02-20 13:17:00,
2013-02-20 05:22:00,41.5,35.8,29.90,West,277,1.0,0.0,80,0.00,,,0.00,WeatherTracker,2013-02-20 13:22:00,
2013-02-20 05:27:00,41.5,35.8,29.90,West,280,0.0,0.0,80,0.00,,,0.00,WeatherTracker,2013-02-20 13:27:00,
2013-02-20 05:32:00,41.5,35.8,29.90,West,280,0.0,0.0,80,0.00,,,0.00,WeatherTracker,2013-02-20 13:32:00,
2013-02-20 05:37:00,41.4,35.7,29.90,West,270,2.0,0.0,80,0.00,,,0.00,WeatherTracker,2013-02-20 13:37:00,
2013-02-20 05:42:00,41.4,35.7,29.90,WNW,293,0.0,0.0,80,0.00,,,0.00,WeatherTracker,2013-02-20 13:42:00,
2013-02-20 05:47:00,41.3,35.6,29.91,WNW,294,0.0,0.0,80,0.00,,,0.00,WeatherTracker,2013-02-20 13:47:00,
2013-02-20 05:52:00,41.1,35.4,29.91,WNW,293,0.0,0.0,80,0.00,,,0.00,WeatherTracker,2013-02-20 13:52:00,
2013-02-20 05:57:00,41.1,35.7,29.91,WNW,294,0.0,0.0,81,0.00,,,0.00,WeatherTracker,2013-02-20 13:57:00,
2013-02-20 06:02:00,41.1,35.7,29.91,West,276,0.0,0.0,81,0.00,,,0.00,WeatherTracker,2013-02-20 14:02:00,
2013-02-20 06:07:00,41.2,35.8,29.91,West,265,1.0,0.0,81,0.00,,,0.00,WeatherTracker,2013-02-20 14:07:00,
2013-02-20 06:12:00,41.1,35.7,29.91,WSW,243,3.0,0.0,81,0.00,,,0.00,WeatherTracker,2013-02-20 14:12:00,
2013-02-20 06:17:00,40.9,35.5,29.92,WSW,253,2.0,0.0,81,0.00,,,0.00,WeatherTracker,2013-02-20 14:17:00,
2013-02-20 06:22:00,40.7,35.3,29.92,WSW,246,0.0,0.0,81,0.00,,,0.00,WeatherTracker,2013-02-20 14:22:00,
2013-02-20 06:27:00,40.7,35.3,29.92,WSW,252,2.0,0.0,81,0.00,,,0.00,WeatherTracker,2013-02-20 14:27:00,
2013-02-20 06:32:00,40.5,35.1,29.92,West,259,0.0,0.0,81,0.00,,,0.00,WeatherTracker,2013-02-20 14:32:00,
2013-02-20 06:37:00,40.4,35.3,29.92,SW,224,1.0,0.0,82,0.00,,,0.00,WeatherTracker,2013-02-20 14:37:00,
2013-02-20 06:43:00,40.6,35.5,29.92,SW,222,0.0,0.0,82,0.00,,,0.00,WeatherTracker,2013-02-20 14:43:00,
2013-02-20 06:48:00,40.7,35.3,29.92,SW,219,0.0,0.0,81,0.00,,,0.00,WeatherTracker,2013-02-20 14:48:00,
2013-02-20 06:53:00,40.6,35.2,29.92,SW,219,0.0,0.0,81,0.00,,,0.00,WeatherTracker,2013-02-20 14:53:00,
2013-02-20 06:58:00,40.7,35.6,29.92,SW,219,0.0,0.0,82,0.00,,,0.00,WeatherTracker,2013-02-20 14:58:00,
2013-02-20 07:03:00,40.7,35.3,29.93,NW,319,0.0,0.0,81,0.00,,,0.00,WeatherTracker,2013-02-20 15:03:00,
2013-02-20 07:08:00,40.9,35.5,29.93,NE,36,0.0,0.0,81,0.00,,,0.00,WeatherTracker,2013-02-20 15:08:00,
2013-02-20 07:13:00,41.7,36.0,29.93,NE,39,0.0,0.0,80,0.00,,,0.00,WeatherTracker,2013-02-20 15:13:00,
2013-02-20 07:18:00,41.8,35.8,29.93,NE,40,0.0,0.0,79,0.00,,,0.00,WeatherTracker,2013-02-20 15:18:00,
2013-02-20 07:23:00,42.2,36.5,29.93,SW,219,0.0,0.0,80,0.00,,,0.00,WeatherTracker,2013-02-20 15:23:00,
2013-02-20 07:28:00,42.1,36.1,29.94,WSW,253,3.0,0.0,79,0.00,,,0.00,WeatherTracker,2013-02-20 15:28:00,
2013-02-20 07:33:00,42.1,36.1,29.94,SW,236,0.0,0.0,79,0.00,,,0.00,WeatherTracker,2013-02-20 15:33:00,
2013-02-20 07:38:00,42.4,36.4,29.94,WSW,237,0.0,0.0,79,0.00,,,0.00,WeatherTracker,2013-02-20 15:38:00,
2013-02-20 07:43:00,43.2,37.5,29.94,WSW,238,0.0,0.0,80,0.00,,,0.00,WeatherTracker,2013-02-20 15:43:00,
2013-02-20 07:48:00,44.4,37.6,29.95,WSW,237,0.0,0.0,77,0.00,,,0.00,WeatherTracker,2013-02-20 15:48:00,
2013-02-20 07:53:00,44.5,37.4,29.95,WSW,238,0.0,0.0,76,0.00,,,0.00,WeatherTracker,2013-02-20 15:53:00,
2013-02-20 07:58:00,44.9,37.8,29.95,WSW,238,0.0,0.0,76,0.00,,,0.00,WeatherTracker,2013-02-20 15:58:00,
2013-02-20 08:03:00,45.5,38.0,29.95,WSW,238,0.0,0.0,75,0.00,,,0.00,WeatherTracker,2013-02-20 16:03:00,
2013-02-20 08:08:00,45.9,37.4,29.95,WNW,283,0.0,0.0,72,0.00,,,0.00,WeatherTracker,2013-02-20 16:08:00,
2013-02-20 08:13:00,46.1,36.9,29.96,West,281,2.0,0.0,70,0.00,,,0.00,WeatherTracker,2013-02-20 16:13:00,
2013-02-20 08:18:00,45.9,36.7,29.96,West,269,2.0,0.0,70,0.00,,,0.00,WeatherTracker,2013-02-20 16:18:00,
2013-02-20 08:23:00,46.0,36.8,29.96,West,264,0.0,0.0,70,0.00,,,0.00,WeatherTracker,2013-02-20 16:23:00,
2013-02-20 08:29:00,46.6,38.1,29.96,West,271,0.0,0.0,72,0.00,,,0.00,WeatherTracker,2013-02-20 16:29:00,
2013-02-20 08:34:00,47.8,38.5,29.96,NNE,30,0.0,0.0,70,0.00,,,0.00,WeatherTracker,2013-02-20 16:34:00,
2013-02-20 08:39:00,48.0,36.8,29.96,NNE,20,0.0,0.0,65,0.00,,,0.00,WeatherTracker,2013-02-20 16:39:00,
2013-02-20 08:44:00,47.9,35.9,29.96,NNW,347,1.0,0.0,63,0.00,,,0.00,WeatherTracker,2013-02-20 16:44:00,
2013-02-20 08:49:00,48.3,35.9,29.96,NNE,15,0.0,0.0,62,0.00,,,0.00,WeatherTracker,2013-02-20 16:49:00,
2013-02-20 08:54:00,48.6,35.8,29.97,North,5,3.0,0.0,61,0.00,,,0.00,WeatherTracker,2013-02-20 16:54:00,
2013-02-20 08:59:00,48.5,36.1,29.97,NE,49,2.0,0.0,62,0.00,,,0.00,WeatherTracker,2013-02-20 16:59:00,
2013-02-20 09:04:00,48.5,36.5,29.97,ESE,105,0.0,0.0,63,0.00,,,0.00,WeatherTracker,2013-02-20 17:04:00,
2013-02-20 09:09:00,49.1,35.8,29.97,North,8,0.0,0.0,60,0.00,,,0.00,WeatherTracker,2013-02-20 17:09:00,
2013-02-20 09:14:00,49.5,36.2,29.97,NE,56,0.0,0.0,60,0.00,,,0.00,WeatherTracker,2013-02-20 17:14:00,
2013-02-20 09:19:00,49.7,36.4,29.97,ESE,102,1.0,0.0,60,0.00,,,0.00,WeatherTracker,2013-02-20 17:19:00,
2013-02-20 09:24:00,50.0,35.8,29.97,NNE,26,2.0,0.0,58,0.00,,,0.00,WeatherTracker,2013-02-20 17:24:00,
2013-02-20 09:29:00,50.3,36.5,29.97,NE,45,2.0,0.0,59,0.00,,,0.00,WeatherTracker,2013-02-20 17:29:00,
2013-02-20 09:34:00,50.0,36.7,29.98,NE,49,0.0,0.0,60,0.00,,,0.00,WeatherTracker,2013-02-20 17:34:00,
2013-02-20 09:39:00,50.6,36.4,29.98,NNW,337,3.0,0.0,58,0.00,,,0.00,WeatherTracker,2013-02-20 17:39:00,
2013-02-20 09:44:00,50.6,35.0,29.98,ENE,63,1.0,0.0,55,0.00,,,0.00,WeatherTracker,2013-02-20 17:44:00,
2013-02-20 09:49:00,51.0,35.4,29.98,WNW,285,1.0,0.0,55,0.00,,,0.00,WeatherTracker,2013-02-20 17:49:00,
2013-02-20 09:54:00,51.6,34.6,29.98,WSW,257,1.0,0.0,52,0.00,,,0.00,WeatherTracker,2013-02-20 17:54:00,
2013-02-20 09:59:00,51.5,34.9,29.98,West,276,0.0,0.0,53,0.00,,,0.00,WeatherTracker,2013-02-20 17:59:00,
2013-02-20 10:04:00,52.1,35.5,29.98,NNE,24,1.0,0.0,53,0.00,,,0.00,WeatherTracker,2013-02-20 18:04:00,
2013-02-20 10:09:00,52.7,35.6,29.98,WSW,255,0.0,0.0,52,0.00,,,0.00,WeatherTracker,2013-02-20 18:09:00,
2013-02-20 10:14:00,52.8,35.7,29.98,West,259,0.0,0.0,52,0.00,,,0.00,WeatherTracker,2013-02-20 18:14:00,
2013-02-20 10:20:00,53.0,35.4,29.98,SW,224,1.0,0.0,51,0.00,,,0.00,WeatherTracker,2013-02-20 18:20:00,
2013-02-20 10:25:00,54.0,36.3,29.98,WNW,302,2.0,0.0,51,0.00,,,0.00,WeatherTracker,2013-02-20 18:25:00,
2013-02-20 10:30:00,53.6,35.4,29.98,SW,221,5.0,0.0,50,0.00,,,0.00,WeatherTracker,2013-02-20 18:30:00,
2013-02-20 10:35:00,53.3,35.1,29.98,SW,231,3.0,0.0,50,0.00,,,0.00,WeatherTracker,2013-02-20 18:35:00,
2013-02-20 10:40:00,53.2,35.0,29.98,West,263,1.0,0.0,50,0.00,,,0.00,WeatherTracker,2013-02-20 18:40:00,
2013-02-20 10:45:00,53.1,36.4,29.98,WSW,253,6.0,0.0,53,0.00,,,0.00,WeatherTracker,2013-02-20 18:45:00,
2013-02-20 10:50:00,53.0,36.8,29.99,WSW,256,4.0,0.0,54,0.00,,,0.00,WeatherTracker,2013-02-20 18:50:00,
2013-02-20 10:55:00,53.0,36.3,29.99,WSW,252,1.0,0.0,53,0.00,,,0.00,WeatherTracker,2013-02-20 18:55:00,
2013-02-20 11:00:00,52.9,37.2,29.99,SW,214,1.0,0.0,55,0.00,,,0.00,WeatherTracker,2013-02-20 19:00:00,
2013-02-20 11:05:00,53.7,37.5,29.99,SSW,202,2.0,0.0,54,0.00,,,0.00,WeatherTracker,2013-02-20 19:05:00,
2013-02-20 11:10:00,53.8,36.6,29.99,West,259,5.0,0.0,52,0.00,,,0.00,WeatherTracker,2013-02-20 19:10:00,
2013-02-20 11:15:00,53.8,36.6,29.99,WSW,257,3.0,0.0,52,0.00,,,0.00,WeatherTracker,2013-02-20 19:15:00,
2013-02-20 11:20:00,54.0,36.8,29.98,WSW,248,4.0,0.0,52,0.00,,,0.00,WeatherTracker,2013-02-20 19:20:00,
2013-02-20 11:25:00,54.0,37.3,29.99,SW,233,9.0,0.0,53,0.00,,,0.00,WeatherTracker,2013-02-20 19:25:00,
2013-02-20 11:30:00,53.9,38.1,29.98,SSW,202,2.0,0.0,55,0.00,,,0.00,WeatherTracker,2013-02-20 19:30:00,
2013-02-20 11:35:00,53.4,38.6,29.99,SW,220,4.0,0.0,57,0.00,,,0.00,WeatherTracker,2013-02-20 19:35:00,
2013-02-20 11:40:00,53.4,38.6,29.99,WNW,288,4.0,0.0,57,0.00,,,0.00,WeatherTracker,2013-02-20 19:40:00,
2013-02-20 11:45:00,53.4,39.0,29.99,SSW,207,3.0,0.0,58,0.00,,,0.00,WeatherTracker,2013-02-20 19:45:00,
2013-02-20 11:50:00,53.7,38.8,29.98,West,264,9.0,0.0,57,0.00,,,0.00,WeatherTracker,2013-02-20 19:50:00,
2013-02-20 11:55:00,53.6,38.3,29.98,WSW,253,6.0,0.0,56,0.00,,,0.00,WeatherTracker,2013-02-20 19:55:00,
2013-02-20 12:00:00,53.3,38.5,29.98,WSW,246,12.0,0.0,57,0.00,,,0.00,WeatherTracker,2013-02-20 20:00:00,
2013-02-20 12:05:00,53.5,38.2,29.98,WSW,251,4.0,0.0,56,0.00,,,0.00,WeatherTracker,2013-02-20 20:05:00,
2013-02-20 12:10:00,53.8,38.5,29.98,West,260,7.0,0.0,56,0.00,,,0.00,WeatherTracker,2013-02-20 20:10:00,
2013-02-20 12:15:00,53.7,38.4,29.98,WNW,290,6.0,0.0,56,0.00,,,0.00,WeatherTracker,2013-02-20 20:15:00,
2013-02-20 12:20:00,54.2,37.9,29.98,WSW,238,6.0,0.0,54,0.00,,,0.00,WeatherTracker,2013-02-20 20:20:00,
2013-02-20 12:26:00,54.2,37.4,29.98,WSW,239,8.0,0.0,53,0.00,,,0.00,WeatherTracker,2013-02-20 20:26:00,
2013-02-20 12:31:00,54.4,37.6,29.98,West,274,4.0,0.0,53,0.00,,,0.00,WeatherTracker,2013-02-20 20:31:00,
2013-02-20 12:36:00,54.6,37.8,29.98,SW,222,6.0,0.0,53,0.00,,,0.00,WeatherTracker,2013-02-20 20:36:00,
2013-02-20 12:41:00,54.7,37.4,29.98,SSW,213,7.0,0.0,52,0.00,,,0.00,WeatherTracker,2013-02-20 20:41:00,
2013-02-20 12:46:00,55.1,37.3,29.98,SW,226,7.0,0.0,51,0.00,,,0.00,WeatherTracker,2013-02-20 20:46:00,
2013-02-20 12:51:00,55.5,38.2,29.97,East,79,2.0,0.0,52,0.00,,,0.00,WeatherTracker,2013-02-20 20:51:00,
2013-02-20 12:56:00,55.3,38.0,29.97,West,263,6.0,0.0,52,0.00,,,0.00,WeatherTracker,2013-02-20 20:56:00,
2013-02-20 13:01:00,55.6,38.7,29.97,WSW,255,1.0,0.0,53,0.00,,,0.00,WeatherTracker,2013-02-20 21:01:00,
2013-02-20 13:06:00,55.8,38.9,29.97,West,260,5.0,0.0,53,0.00,,,0.00,WeatherTracker,2013-02-20 21:06:00,
2013-02-20 13:11:00,56.0,39.1,29.97,WSW,239,10.0,0.0,53,0.00,,,0.00,WeatherTracker,2013-02-20 21:11:00,
2013-02-20 13:16:00,55.8,38.4,29.97,WNW,288,9.0,0.0,52,0.00,,,0.00,WeatherTracker,2013-02-20 21:16:00,
2013-02-20 13:21:00,55.1,38.3,29.97,West,279,6.0,0.0,53,0.00,,,0.00,WeatherTracker,2013-02-20 21:21:00,
2013-02-20 13:26:00,54.7,39.3,29.97,WSW,256,9.0,0.0,56,0.00,,,0.00,WeatherTracker,2013-02-20 21:26:00,
2013-02-20 13:31:00,54.6,40.1,29.96,SW,236,8.0,0.0,58,0.00,,,0.00,WeatherTracker,2013-02-20 21:31:00,
2013-02-20 13:36:00,55.2,40.7,29.96,WSW,251,4.0,0.0,58,0.00,,,0.00,WeatherTracker,2013-02-20 21:36:00,
2013-02-20 13:41:00,55.3,40.3,29.96,WSW,253,7.0,0.0,57,0.00,,,0.00,WeatherTracker,2013-02-20 21:41:00,
2013-02-20 13:46:00,55.3,39.9,29.96,West,271,6.0,0.0,56,0.00,,,0.00,WeatherTracker,2013-02-20 21:46:00,
2013-02-20 13:51:00,55.4,39.5,29.96,West,278,5.0,0.0,55,0.00,,,0.00,WeatherTracker,2013-02-20 21:51:00,
2013-02-20 13:56:00,55.5,41.0,29.96,West,265,7.0,0.0,58,0.00,,,0.00,WeatherTracker,2013-02-20 21:56:00,
2013-02-20 14:01:00,55.6,41.5,29.96,WSW,248,6.0,0.0,59,0.00,,,0.00,WeatherTracker,2013-02-20 22:01:00,
2013-02-20 14:06:00,55.6,41.5,29.96,WNW,291,6.0,0.0,59,0.00,,,0.00,WeatherTracker,2013-02-20 22:06:00,
2013-02-20 14:11:00,55.2,41.1,29.96,WNW,285,10.0,0.0,59,0.00,,,0.00,WeatherTracker,2013-02-20 22:11:00,
2013-02-20 14:17:00,55.0,41.4,29.95,West,276,5.0,0.0,60,0.00,,,0.00,WeatherTracker,2013-02-20 22:17:00,
2013-02-20 14:22:00,55.4,41.7,29.95,WSW,240,9.0,0.0,60,0.00,,,0.00,WeatherTracker,2013-02-20 22:22:00,
2013-02-20 14:27:00,55.7,41.6,29.95,West,278,8.0,0.0,59,0.00,,,0.00,WeatherTracker,2013-02-20 22:27:00,
2013-02-20 14:32:00,55.5,41.4,29.95,WNW,285,7.0,0.0,59,0.00,,,0.00,WeatherTracker,2013-02-20 22:32:00,
2013-02-20 14:37:00,55.5,41.4,29.95,SW,229,7.0,0.0,59,0.00,,,0.00,WeatherTracker,2013-02-20 22:37:00,
2013-02-20 14:42:00,55.3,41.2,29.95,WSW,243,7.0,0.0,59,0.00,,,0.00,WeatherTracker,2013-02-20 22:42:00,
2013-02-20 14:47:00,55.5,41.4,29.95,WNW,297,2.0,0.0,59,0.00,,,0.00,WeatherTracker,2013-02-20 22:47:00,
2013-02-20 14:52:00,55.5,41.4,29.95,West,281,4.0,0.0,59,0.00,,,0.00,WeatherTracker,2013-02-20 22:52:00,
2013-02-20 14:57:00,55.4,41.3,29.95,West,274,6.0,0.0,59,0.00,,,0.00,WeatherTracker,2013-02-20 22:57:00,
2013-02-20 15:02:00,54.9,40.8,29.95,West,274,13.0,0.0,59,0.00,,,0.00,WeatherTracker,2013-02-20 23:02:00,
2013-02-20 15:07:00,54.8,41.6,29.95,WNW,287,4.0,0.0,61,0.00,,,0.00,WeatherTracker,2013-02-20 23:07:00,
2013-02-20 15:12:00,55.2,42.0,29.96,WSW,253,4.0,0.0,61,0.00,,,0.00,WeatherTracker,2013-02-20 23:12:00,
2013-02-20 15:17:00,55.3,41.7,29.96,West,264,7.0,0.0,60,0.00,,,0.00,WeatherTracker,2013-02-20 23:17:00,
2013-02-20 15:22:00,55.1,41.5,29.96,WSW,249,13.0,0.0,60,0.00,,,0.00,WeatherTracker,2013-02-20 23:22:00,
2013-02-20 15:27:00,54.8,41.2,29.96,SW,236,10.0,0.0,60,0.00,,,0.00,WeatherTracker,2013-02-20 23:27:00,
2013-02-20 15:32:00,54.7,41.5,29.96,South,188,4.0,0.0,61,0.00,,,0.00,WeatherTracker,2013-02-20 23:32:00,
2013-02-20 15:37:00,54.8,41.6,29.96,West,271,6.0,0.0,61,0.00,,,0.00,WeatherTracker,2013-02-20 23:37:00,
2013-02-20 15:42:00,55.0,42.6,29.96,WNW,284,8.0,0.0,63,0.00,,,0.00,WeatherTracker,2013-02-20 23:42:00,
2013-02-20 15:47:00,54.6,42.7,29.96,WNW,297,6.0,0.0,64,0.00,,,0.00,WeatherTracker,2013-02-20 23:47:00,
2013-02-20 15:52:00,54.3,42.4,29.96,NW,312,7.0,0.0,64,0.00,,,0.00,WeatherTracker,2013-02-20 23:52:00,
2013-02-20 15:57:00,54.4,42.9,29.96,West,272,4.0,0.0,65,0.00,,,0.00,WeatherTracker,2013-02-20 23:57:00,
2013-02-20 16:02:00,54.6,42.7,29.96,WNW,298,9.0,0.0,64,0.00,,,0.00,WeatherTracker,2013-02-21 00:02:00,
2013-02-20 16:08:00,54.3,42.8,29.96,West,271,7.0,0.0,65,0.00,,,0.00,WeatherTracker,2013-02-21 00:08:00,
2013-02-20 16:13:00,54.0,42.5,29.96,WNW,288,6.0,0.0,65,0.00,,,0.00,WeatherTracker,2013-02-21 00:13:00,
2013-02-20 16:18:00,53.8,43.1,29.96,WNW,292,12.0,0.0,67,0.00,,,0.00,WeatherTracker,2013-02-21 00:18:00,
2013-02-20 16:23:00,53.7,43.0,29.96,West,266,8.0,0.0,67,0.00,,,0.00,WeatherTracker,2013-02-21 00:23:00,
2013-02-20 16:28:00,53.6,42.9,29.96,West,278,9.0,0.0,67,0.00,,,0.00,WeatherTracker,2013-02-21 00:28:00,
2013-02-20 16:33:00,53.6,42.9,29.96,WNW,297,14.0,0.0,67,0.00,,,0.00,WeatherTracker,2013-02-21 00:33:00,
2013-02-20 16:38:00,53.4,42.7,29.97,West,278,5.0,0.0,67,0.00,,,0.00,WeatherTracker,2013-02-21 00:38:00,
2013-02-20 16:43:00,53.6,43.3,29.97,WNW,283,4.0,0.0,68,0.00,,,0.00,WeatherTracker,2013-02-21 00:43:00,
2013-02-20 16:48:00,53.5,42.8,29.97,West,263,7.0,0.0,67,0.00,,,0.00,WeatherTracker,2013-02-21 00:48:00,
2013-02-20 16:53:00,53.3,43.0,29.96,WSW,239,12.0,0.0,68,0.00,,,0.00,WeatherTracker,2013-02-21 00:53:00,
2013-02-20 16:58:00,53.1,42.4,29.97,WNW,283,9.0,0.0,67,0.00,,,0.00,WeatherTracker,2013-02-21 00:58:00,
2013-02-20 17:03:00,53.1,42.8,29.96,WNW,297,2.0,0.0,68,0.00,,,0.00,WeatherTracker,2013-02-21 01:03:00,
2013-02-20 17:08:00,52.9,42.6,29.96,WNW,298,8.0,0.0,68,0.00,,,0.00,WeatherTracker,2013-02-21 01:08:00,
2013-02-20 17:13:00,52.8,42.9,29.96,WSW,238,2.0,0.0,69,0.00,,,0.00,WeatherTracker,2013-02-21 01:13:00,
2013-02-20 17:18:00,52.7,42.4,29.96,WSW,249,9.0,0.0,68,0.00,,,0.00,WeatherTracker,2013-02-21 01:18:00,
2013-02-20 17:23:00,52.6,42.7,29.96,WSW,248,8.0,0.0,69,0.00,,,0.00,WeatherTracker,2013-02-21 01:23:00,
2013-02-20 17:28:00,52.4,42.5,29.97,WSW,245,7.0,0.0,69,0.00,,,0.00,WeatherTracker,2013-02-21 01:28:00,
2013-02-20 17:33:00,52.0,42.1,29.96,West,262,6.0,0.0,69,0.00,,,0.00,WeatherTracker,2013-02-21 01:33:00,
2013-02-20 17:38:00,51.8,42.0,29.96,West,274,6.0,0.0,69,0.00,,,0.00,WeatherTracker,2013-02-21 01:38:00,
2013-02-20 17:43:00,51.6,41.8,29.96,WSW,257,5.0,0.0,69,0.00,,,0.00,WeatherTracker,2013-02-21 01:43:00,
2013-02-20 17:48:00,51.5,41.7,29.97,NW,320,4.0,0.0,69,0.00,,,0.00,WeatherTracker,2013-02-21 01:48:00,
2013-02-20 17:53:00,51.3,41.9,29.97,NW,309,6.0,0.0,70,0.00,,,0.00,WeatherTracker,2013-02-21 01:53:00,
2013-02-20 17:58:00,51.1,41.7,29.97,WNW,286,4.0,0.0,70,0.00,,,0.00,WeatherTracker,2013-02-21 01:58:00,
2013-02-20 18:03:00,50.9,41.5,29.98,WNW,293,8.0,0.0,70,0.00,,,0.00,WeatherTracker,2013-02-21 02:03:00,
2013-02-20 18:08:00,50.8,41.4,29.98,West,262,8.0,0.0,70,0.00,,,0.00,WeatherTracker,2013-02-21 02:08:00,
2013-02-20 18:13:00,50.6,41.5,29.98,West,279,4.0,0.0,71,0.00,,,0.00,WeatherTracker,2013-02-21 02:13:00,
2013-02-20 18:18:00,50.5,41.1,29.98,WNW,294,4.0,0.0,70,0.00,,,0.00,WeatherTracker,2013-02-21 02:18:00,
2013-02-20 18:24:00,50.4,41.0,29.98,SW,224,4.0,0.0,70,0.00,,,0.00,WeatherTracker,2013-02-21 02:24:00,
2013-02-20 18:29:00,50.4,41.0,29.98,WSW,238,5.0,0.0,70,0.00,,,0.00,WeatherTracker,2013-02-21 02:29:00,
2013-02-20 18:34:00,50.3,40.9,29.98,West,280,5.0,0.0,70,0.00,,,0.00,WeatherTracker,2013-02-21 02:34:00,
2013-02-20 18:39:00,50.2,40.8,29.98,WNW,295,3.0,0.0,70,0.00,,,0.00,WeatherTracker,2013-02-21 02:39:00,
2013-02-20 18:44:00,50.1,40.7,29.98,NW,323,3.0,0.0,70,0.00,,,0.00,WeatherTracker,2013-02-21 02:44:00,
2013-02-20 18:49:00,50.1,40.7,29.99,WSW,238,4.0,0.0,70,0.00,,,0.00,WeatherTracker,2013-02-21 02:49:00,
2013-02-20 18:54:00,50.0,40.6,29.99,SW,232,6.0,0.0,70,0.00,,,0.00,WeatherTracker,2013-02-21 02:54:00,
2013-02-20 18:59:00,49.9,40.5,29.99,WSW,253,6.0,0.0,70,0.00,,,0.00,WeatherTracker,2013-02-21 02:59:00,
2013-02-20 19:04:00,49.8,40.8,29.99,West,270,6.0,0.0,71,0.00,,,0.00,WeatherTracker,2013-02-21 03:04:00,
2013-02-20 19:09:00,49.7,41.0,29.99,WNW,301,5.0,0.0,72,0.00,,,0.00,WeatherTracker,2013-02-21 03:09:00,
2013-02-20 19:14:00,49.5,40.9,29.99,SW,218,5.0,0.0,72,0.00,,,0.00,WeatherTracker,2013-02-21 03:14:00,
2013-02-20 19:19:00,49.5,41.2,29.99,West,273,3.0,0.0,73,0.00,,,0.00,WeatherTracker,2013-02-21 03:19:00,
2013-02-20 19:24:00,49.4,41.1,29.99,West,280,4.0,0.0,73,0.00,,,0.00,WeatherTracker,2013-02-21 03:24:00,
2013-02-20 19:29:00,49.3,41.0,29.99,WSW,248,8.0,0.0,73,0.00,,,0.00,WeatherTracker,2013-02-21 03:29:00,
2013-02-20 19:34:00,49.4,41.1,30.00,WNW,290,12.0,0.0,73,0.00,,,0.00,WeatherTracker,2013-02-21 03:34:00,
2013-02-20 19:39:00,49.4,41.1,30.00,WSW,243,8.0,0.0,73,0.00,,,0.00,WeatherTracker,2013-02-21 03:39:00,
2013-02-20 19:44:00,49.4,41.1,30.00,West,277,5.0,0.0,73,0.00,,,0.00,WeatherTracker,2013-02-21 03:44:00,
2013-02-20 19:49:00,49.3,41.4,30.00,West,281,6.0,0.0,74,0.00,,,0.00,WeatherTracker,2013-02-21 03:49:00,
2013-02-20 19:54:00,49.3,41.4,30.00,WSW,257,11.0,0.0,74,0.00,,,0.00,WeatherTracker,2013-02-21 03:54:00,
2013-02-20 19:59:00,49.2,41.3,30.00,WSW,243,14.0,0.0,74,0.00,,,0.00,WeatherTracker,2013-02-21 03:59:00,
2013-02-20 20:04:00,49.2,41.6,30.01,West,276,14.0,0.0,75,0.00,,,0.00,WeatherTracker,2013-02-21 04:04:00,
2013-02-20 20:09:00,49.2,41.6,30.01,West,271,11.0,0.0,75,0.00,,,0.00,WeatherTracker,2013-02-21 04:09:00,
2013-02-20 20:14:00,49.2,42.0,30.01,WNW,283,4.0,0.0,76,0.00,,,0.00,WeatherTracker,2013-02-21 04:14:00,
2013-02-20 20:20:00,49.2,42.0,30.01,WNW,284,4.0,0.0,76,0.00,,,0.00,WeatherTracker,2013-02-21 04:20:00,
2013-02-20 20:25:00,49.1,41.9,30.01,WNW,295,5.0,0.0,76,0.00,,,0.00,WeatherTracker,2013-02-21 04:25:00,
2013-02-20 20:30:00,49.1,41.9,30.01,West,271,6.0,0.0,76,0.00,,,0.00,WeatherTracker,2013-02-21 04:30:00,
2013-02-20 20:35:00,49.0,41.8,30.02,West,259,3.0,0.0,76,0.00,,,0.00,WeatherTracker,2013-02-21 04:35:00,
2013-02-20 20:40:00,49.0,41.8,30.02,SW,231,1.0,0.0,76,0.00,,,0.00,WeatherTracker,2013-02-21 04:40:00,
2013-02-20 20:45:00,49.0,41.8,30.02,WSW,244,5.0,0.0,76,0.00,,,0.00,WeatherTracker,2013-02-21 04:45:00,
2013-02-20 20:50:00,49.1,41.9,30.02,SW,215,1.0,0.0,76,0.00,,,0.00,WeatherTracker,2013-02-21 04:50:00,
2013-02-20 20:55:00,49.1,41.9,30.02,WSW,249,3.0,0.0,76,0.00,,,0.00,WeatherTracker,2013-02-21 04:55:00,
2013-02-20 21:00:00,49.1,41.5,30.02,SW,229,3.0,0.0,75,0.00,,,0.00,WeatherTracker,2013-02-21 05:00:00,
2013-02-20 21:06:00,49.0,41.4,30.02,SW,231,4.0,0.0,75,0.00,,,0.00,WeatherTracker,2013-02-21 05:06:00,
2013-02-20 21:11:00,48.9,41.3,30.02,SW,236,1.0,0.0,75,0.00,,,0.00,WeatherTracker,2013-02-21 05:11:00,
2013-02-20 21:16:00,48.8,41.2,30.02,WSW,240,3.0,0.0,75,0.00,,,0.00,WeatherTracker,2013-02-21 05:16:00,
2013-02-20 21:21:00,48.8,41.2,30.03,SW,214,3.0,0.0,75,0.00,,,0.00,WeatherTracker,2013-02-21 05:21:00,
2013-02-20 21:26:00,48.7,41.1,30.03,WSW,243,1.0,0.0,75,0.00,,,0.00,WeatherTracker,2013-02-21 05:26:00,
2013-02-20 21:31:00,48.6,41.0,30.03,SW,236,2.0,0.0,75,0.00,,,0.00,WeatherTracker,2013-02-21 05:31:00,
2013-02-20 21:36:00,48.5,40.9,30.04,WNW,285,3.0,0.0,75,0.00,,,0.00,WeatherTracker,2013-02-21 05:36:00,
2013-02-20 21:41:00,48.4,40.8,30.04,WSW,248,4.0,0.0,75,0.00,,,0.00,WeatherTracker,2013-02-21 05:41:00,
2013-02-20 21:46:00,48.4,40.8,30.04,WNW,302,2.0,0.0,75,0.00,,,0.00,WeatherTracker,2013-02-21 05:46:00,
2013-02-20 21:51:00,48.3,41.1,30.04,SW,223,8.0,0.0,76,0.00,,,0.00,WeatherTracker,2013-02-21 05:51:00,
2013-02-20 21:56:00,48.3,40.7,30.04,NW,304,6.0,0.0,75,0.00,,,0.00,WeatherTracker,2013-02-21 05:56:00,
2013-02-20 22:01:00,48.3,41.1,30.04,West,280,2.0,0.0,76,0.00,,,0.00,WeatherTracker,2013-02-21 06:01:00,
2013-02-20 22:06:00,48.2,41.0,30.04,West,266,1.0,0.0,76,0.00,,,0.00,WeatherTracker,2013-02-21 06:06:00,
2013-02-20 22:11:00,48.1,40.9,30.05,WNW,302,5.0,0.0,76,0.00,,,0.00,WeatherTracker,2013-02-21 06:11:00,
2013-02-20 22:16:00,48.0,41.1,30.04,WSW,246,6.0,0.0,77,0.00,,,0.00,WeatherTracker,2013-02-21 06:16:00,
2013-02-20 22:21:00,48.0,41.1,30.04,WSW,253,4.0,0.0,77,0.00,,,0.00,WeatherTracker,2013-02-21 06:21:00,
2013-02-20 22:26:00,47.9,41.0,30.04,WSW,250,6.0,0.0,77,0.00,,,0.00,WeatherTracker,2013-02-21 06:26:00,
2013-02-20 22:31:00,47.8,40.9,30.04,WNW,288,2.0,0.0,77,0.00,,,0.00,WeatherTracker,2013-02-21 06:31:00,
2013-02-20 22:36:00,47.7,40.8,30.04,West,277,3.0,0.0,77,0.00,,,0.00,WeatherTracker,2013-02-21 06:36:00,
2013-02-20 22:41:00,47.5,40.7,30.04,West,262,2.0,0.0,77,0.00,,,0.00,WeatherTracker,2013-02-21 06:41:00,
2013-02-20 22:46:00,47.4,40.6,30.04,WNW,300,1.0,0.0,77,0.00,,,0.00,WeatherTracker,2013-02-21 06:46:00,
2013-02-20 22:51:00,47.3,40.5,30.04,SW,236,1.0,0.0,77,0.00,,,0.00,WeatherTracker,2013-02-21 06:51:00,
2013-02-20 22:56:00,47.3,40.5,30.03,West,277,1.0,0.0,77,0.00,,,0.00,WeatherTracker,2013-02-21 06:56:00,
2013-02-20 23:01:00,47.1,40.3,30.03,West,274,0.0,0.0,77,0.00,,,0.00,WeatherTracker,2013-02-21 07:01:00,
2013-02-20 23:06:00,47.1,40.3,30.03,West,263,0.0,0.0,77,0.00,,,0.00,WeatherTracker,2013-02-21 07:06:00,
2013-02-20 23:11:00,47.3,40.5,30.04,West,278,2.0,0.0,77,0.00,,,0.00,WeatherTracker,2013-02-21 07:11:00,
2013-02-20 23:16:00,47.4,40.2,30.04,WSW,248,4.0,0.0,76,0.00,,,0.00,WeatherTracker,2013-02-21 07:16:00,
2013-02-20 23:21:00,47.5,40.3,30.04,SW,233,10.0,0.0,76,0.00,,,0.00,WeatherTracker,2013-02-21 07:21:00,
2013-02-20 23:27:00,47.5,40.3,30.04,WSW,253,13.0,0.0,76,0.00,,,0.00,WeatherTracker,2013-02-21 07:27:00,
2013-02-20 23:32:00,47.4,40.2,30.04,WNW,290,5.0,0.0,76,0.00,,,0.00,WeatherTracker,2013-02-21 07:32:00,
2013-02-20 23:37:00,47.2,40.0,30.04,West,278,3.0,0.0,76,0.00,,,0.00,WeatherTracker,2013-02-21 07:37:00,
2013-02-20 23:42:00,47.1,39.9,30.04,WNW,295,2.0,0.0,76,0.00,,,0.00,WeatherTracker,2013-02-21 07:42:00,
2013-02-20 23:47:00,47.0,39.8,30.04,West,263,4.0,0.0,76,0.00,,,0.00,WeatherTracker,2013-02-21 07:47:00,
2013-02-20 23:52:00,47.0,39.8,30.04,WSW,237,3.0,0.0,76,0.00,,,0.00,WeatherTracker,2013-02-21 07:52:00,
2013-02-20 23:57:00,46.9,39.7,30.05,SW,230,3.0,0.0,76,0.00,,,0.00,WeatherTracker,2013-02-21 07:57:00,